logo
App data

Major Mayhem

Arcade cover shooter inspired by Time Crisis, Metal Slug and 80's action heros! He's got an itchy trigger finger, some scratchy stubble, and a fondness for shooting dudes in the face. Run and gun your way through gorgeous 3D environments as you embark on a mission to rescue your kidnapped girlfriend from the Forces of Evil.
Store | Hub | SteamDB | Site
Developer: Rocket Jump Publisher: Publisher: Rocket Jump
Genre: Action, Adventure, Casual, Indie
Languages: English
Tags: Action (45), Indie (40), Casual (36), Shooter (28), Adventure (27), On-Rails Shooter (25), Arcade (9), America (8)
Category: Single-player, Steam Achievements, Steam Trading Cards, Steam Cloud, Steam Leaderboards
Release date: Feb 24, 2014
Price: $4.99
Score rank: 87% Userscore: 93% Old userscore: 83%
Owners: 20,000 .. 50,000
Followers: 449
Peak concurrent players yesterday: 3
YouTube stats: 36,250 views and 206 comments for videos uploaded last week, 23 new videos uploaded yesterday.
Playtime total: 04:36 (average) 02:00 (median)

Steam Spy is still in beta, so expect major bugs.

Owners data:

Access restricted.

This feature is only available to users with special access rights. Sorry.

If you want to proceed, you need to register or log in first and then back Steam Spy on Patreon. Look for Indie or Pro pledge.

Don't forget to use the same email as on Steam Spy!

Audience in 2 weeks:

Access restricted.

This feature is only available to users with special access rights. Sorry.

If you want to proceed, you need to register or log in first and then back Steam Spy on Patreon. Look for Indie or Pro pledge.

Don't forget to use the same email as on Steam Spy!

Peak daily concurrent players:

CCU data courtesy of SteamDB. Used with permission.

Hourly concurrent players:

Daily Twitch stats:

Hourly Twitch stats:

YouTube:

The views data is based on top 50 videos uploaded last week. Actual number of views might be more than the number shown.

The displayed number of videos uploaded yesterday is limited to 50, so if there were more videos uploaded, the number will still show 50.

If the game has commonly used word as its name (like "FEAR" or "Volume") its number of Youtube views might be wrong.

Games similar to this one:

# Game Release date
Price
Score rank
(Userscore / Metascore)
Owners
Players
Playtime (Median)
1 Little Big Adventure 2 Oct 20, 2015 $3.9999% (98%)0 .. 20,0000%00:00 (00:00)
2 Militia Dec 2, 2015 $5.9999% (98%)0 .. 20,0000%00:00 (00:00)
3 Seven Kingdoms: Ancient Adversaries Jun 8, 1998 $5.99N/A (N/A)0 .. 20,0000%00:00 (00:00)
4 Dungeon Warfare Nov 4, 2015 $9.9997% (97%)20,000 .. 50,0000%00:00 (00:00)
5 Voodoo Vince: Remastered Apr 17, 2017 $14.9995% (96%/63%)0 .. 20,0000%00:00 (00:00)
6 Imperium Galactica Jan 19, 2017 $4.99N/A (N/A)0 .. 20,0000%00:00 (00:00)
7 Defend The Highlands Nov 6, 2015 $9.9995% (96%)100,000 .. 200,0002.34%04:29 (03:32)
8 Outcast 1.1 Dec 18, 2014 $5.9993% (95%)20,000 .. 50,0000%00:00 (00:00)
9 PixelJunk Shooter Nov 11, 2013 $8.9993% (95%/73%)100,000 .. 200,0000%00:00 (00:00)
10 Darknet Jun 8, 2017 $14.9993% (95%)0 .. 20,0000%00:00 (00:00)
11 Chicken Invaders 2 Mar 4, 2016 $3.9993% (95%)0 .. 20,0000%00:00 (00:00)
12 Hegemony Gold: Wars of Ancient Greece Mar 30, 2012 $14.9993% (95%)20,000 .. 50,00014.29%00:02 (00:00)
13 Templar Battleforce Sep 21, 2015 $9.9993% (95%)20,000 .. 50,00011.11%00:12 (00:07)
14 Run or Die Dec 11, 2014 $4.9990% (94%)0 .. 20,0000%00:00 (00:00)
15 Spider: Rite of the Shrouded Moon Aug 6, 2015 $9.9990% (94%)20,000 .. 50,0000%00:00 (00:00)
16 Majesty Gold HD Sep 4, 2009 $9.9990% (94%)100,000 .. 200,0000%00:00 (00:00)
17 Neon Chrome Apr 28, 2016 $14.9990% (94%/74%)200,000 .. 500,0000.47%00:23 (00:07)
18 Stick it to The Man! Dec 13, 2013 $7.9990% (94%/83%)50,000 .. 100,0000%00:00 (00:00)
19 Supercharged Robot VULKAISER Jun 4, 2015 $4.9990% (94%)20,000 .. 50,0000%00:00 (00:00)
20 Handsome Mr. Frog Aug 8, 2016 $0.9990% (94%)0 .. 20,0005.56%00:03 (00:01)
21 Audio Arena Jul 25, 2016 $6.99N/A (N/A)0 .. 20,0000%00:00 (00:00)
22 ESCHATOS Sep 18, 2015 $8.9990% (94%)0 .. 20,0000%00:00 (00:00)
23 Star Trek: Judgment Rites May 8, 2015 $4.99N/A (N/A)0 .. 20,0000%00:00 (00:00)
24 Gold Rush! Classic Dec 23, 1988 $2.9990% (94%)200,000 .. 500,0000.99%03:42 (04:07)
25 RIVE: Wreck, Hack, Die, Retry! Sep 13, 2016 $14.9987% (93%)200,000 .. 500,0000%00:00 (00:00)
26 Ys VI: The Ark of Napishtim Apr 28, 2015 $19.9987% (93%)50,000 .. 100,0000%00:00 (00:00)
27 Bleed Jul 3, 2013 $4.9987% (93%)50,000 .. 100,0001.02%00:01 (00:00)
28 Super Cyborg Jul 8, 2015 $4.9987% (93%)20,000 .. 50,0001.06%00:03 (00:01)
29 Adventure in the Tower of Flight Dec 23, 2015 $4.9987% (93%)0 .. 20,0000%00:00 (00:00)
30 Mad Bullets Jun 10, 2016 $0.9987% (93%)0 .. 20,0003.03%01:07 (00:22)
31 Kick Ass Commandos Nov 17, 2016 $9.9987% (93%)0 .. 20,0000%00:00 (00:00)
32 Eufloria HD Oct 14, 2014 $14.9987% (93%)200,000 .. 500,0000.89%00:09 (00:03)
33 Tallowmere Mar 3, 2015 $3.9987% (93%)20,000 .. 50,0000%00:00 (00:00)
34 Super Trench Attack! Jul 24, 2014 $0.4987% (93%)50,000 .. 100,0000%00:00 (00:00)
35 Death Ray Manta SE Sep 17, 2015 $1.9983% (92%)20,000 .. 50,0000%00:00 (00:00)
36 The Juicer Sep 6, 2012 $0.9983% (92%)20,000 .. 50,0000.77%05:09 (01:43)
37 Anarcute Jul 12, 2016 $14.9983% (92%/79%)0 .. 20,0004.55%02:38 (00:52)
38 Ittle Dew Jul 23, 2013 $9.9983% (92%/67%)100,000 .. 200,0000.63%04:32 (01:30)
39 Knightmare Tower Jun 16, 2014 $3.9983% (92%)0 .. 20,0000%00:00 (00:00)
40 Shmups Skill Test シューティング技能検定 Jun 9, 2016 $4.99N/A (N/A)0 .. 20,0000%00:00 (00:00)
41 Great Big War Game Aug 28, 2012 $6.99N/A (N/A)0 .. 20,0000%00:00 (00:00)
42 Battle Academy 2: Eastern Front Sep 12, 2014 $39.9983% (92%/78%)0 .. 20,0000%00:00 (00:00)
43 Below Kryll Sep 7, 2015 $4.9983% (92%)0 .. 20,0000%00:00 (00:00)
44 Counter Spell Oct 5, 2015 $9.9983% (92%)0 .. 20,0000%00:00 (00:00)
45 Pharaoh Rebirth+ Mar 17, 2016 $4.9983% (92%)0 .. 20,0000%00:00 (00:00)
46 Wars and Warriors: Joan of Arc Feb 7, 2004 $6.9983% (92%/60%)0 .. 20,0000%00:00 (00:00)
47 Miracle Fly Oct 26, 2015 $7.9979% (91%)20,000 .. 50,0000%00:00 (00:00)
48 Explosionade Sep 23, 2015 $3.99N/A (N/A)0 .. 20,0000%00:00 (00:00)
49 Demons with Shotguns Apr 25, 2016 $9.99N/A (N/A)0 .. 20,0000%00:00 (00:00)
50 Ace of Seafood Apr 8, 2016 $5.9979% (91%)0 .. 20,00033.33%00:08 (00:05)
51 Khet 2.0 Oct 1, 2014 $9.9979% (91%)50,000 .. 100,0000%00:00 (00:00)
52 Momodora III Jul 1, 2014 $1.9979% (91%)50,000 .. 100,0000%00:00 (00:00)
53 Swords and Soldiers HD Dec 2, 2010 $9.9979% (91%)200,000 .. 500,0000%00:00 (00:00)
54 Dandy: Or a Brief Glimpse Into the Life of the Candy Alchemist Aug 4, 2015 $9.99N/A (N/A)0 .. 20,0000%00:00 (00:00)
55 Skulls of the Shogun Jul 29, 2013 $9.9979% (91%/72%)50,000 .. 100,0000%00:00 (00:00)
56 Clash of Puppets Dec 16, 2014 $4.9979% (91%)0 .. 20,0000%00:00 (00:00)
57 Valley Aug 24, 2016 $19.9979% (91%)100,000 .. 200,0002.27%00:19 (00:12)
58 Earth Defense Force: Insect Armageddon Dec 14, 2011 $9.9979% (91%/69%)50,000 .. 100,0002.56%00:42 (00:14)
59 Angry Video Game Nerd II: ASSimilation Mar 29, 2016 $9.9979% (91%)20,000 .. 50,00010%01:58 (00:39)
60 Armed with Wings: Rearmed Jun 1, 2017 $9.9979% (91%)20,000 .. 50,0001.92%04:54 (01:38)
61 Warrior Kings: Battles Sep 30, 2003 $9.9979% (91%/64%)20,000 .. 50,0000%00:00 (00:00)
62 Blue Estate The Game Apr 8, 2015 $12.9979% (91%/59%)50,000 .. 100,0000%00:00 (00:00)
63 Near Death Aug 2, 2016 $14.9979% (91%/70%)0 .. 20,0000%00:00 (00:00)
64 Apocalypse: Party's Over May 30, 2016 $4.9976% (90%)0 .. 20,0000%00:00 (00:00)
65 Headlander Jul 25, 2016 $19.9976% (90%/74%)100,000 .. 200,0000%00:00 (00:00)
66 Death's Hangover Jan 20, 2017 $4.9976% (90%)20,000 .. 50,0000%00:00 (00:00)
67 Silent Storm Gold Edition Sep 9, 2004 $9.9976% (90%/83%)200,000 .. 500,0000%00:00 (00:00)
68 Planet of the Eyes Aug 24, 2015 $9.9976% (90%/66%)50,000 .. 100,0000%00:00 (00:00)
69 Superstatic Sep 15, 2015 $4.99N/A (N/A)0 .. 20,0000%00:00 (00:00)
70 System Crash Mar 10, 2016 $14.9976% (90%)0 .. 20,0000%00:00 (00:00)
71 Weird Hero Nov 18, 2016 $2.9976% (90%)0 .. 20,0000%00:00 (00:00)
72 Fort Meow Jun 25, 2015 $7.9976% (90%)0 .. 20,0000%00:00 (00:00)
73 Lethe - Episode One Aug 1, 2016 $14.9976% (90%)0 .. 20,0002.78%03:27 (01:09)
74 Amaranthine Apr 6, 2016 $2.9973% (89%)0 .. 20,0009.09%01:02 (00:41)
75 Reverse Crawl Sep 24, 2015 $5.9973% (89%)20,000 .. 50,0000%00:00 (00:00)
76 Warhammer 40,000: Dawn of War – Winter Assault Aug 7, 2007 $12.9973% (89%)500,000 .. 1,000,0000.31%00:01 (00:00)
77 MoonBase Commander Aug 13, 2002 $5.9973% (89%/77%)20,000 .. 50,0000%00:00 (00:00)
78 Spectromancer Feb 11, 2009 $9.9973% (89%)20,000 .. 50,0000%00:00 (00:00)
79 CastleStorm Jul 29, 2013 $9.9973% (89%/73%)100,000 .. 200,0000%00:00 (00:00)
80 Sneaky Sneaky Nov 12, 2014 $4.9973% (89%/63%)0 .. 20,0000%00:00 (00:00)
81 Codename: Panzers, Phase Two Jul 21, 2005 $14.9973% (89%/80%)20,000 .. 50,0000%00:00 (00:00)
82 Zombo Buster Rising Oct 2, 2016 $1.9973% (89%)0 .. 20,0002.13%01:45 (00:35)
83 The Fall May 30, 2014 $6.9970% (88%/76%)200,000 .. 500,0000.49%05:45 (01:55)
84 Avoid - Sensory Overload Apr 8, 2014 $4.9970% (88%)0 .. 20,0000%00:00 (00:00)
85 Greed Corp Dec 10, 2010 $9.9970% (88%/76%)200,000 .. 500,0000%00:00 (00:00)
86 Syrian Warfare Feb 21, 2017 $14.9970% (88%)20,000 .. 50,0000%00:00 (00:00)
87 Tcheco in the Castle of Lucio Jun 22, 2015 $0.9970% (88%)50,000 .. 100,0001.62%01:55 (01:54)
88 Interloper May 21, 2015 $170% (88%/77%)50,000 .. 100,0001.22%05:34 (05:34)
89 Atom Zombie Smasher Mar 14, 2011 $9.9970% (88%/75%)200,000 .. 500,0000%00:00 (00:00)
90 The Way May 20, 2016 $14.9970% (88%/67%)20,000 .. 50,0003.7%03:18 (02:11)
91 Graviteam Tactics: Mius-Front Mar 4, 2016 $34.9970% (88%)0 .. 20,0000%00:00 (00:00)
92 Earn to Die 2 May 5, 2016 $2.9970% (88%)20,000 .. 50,00011.11%00:28 (00:09)
93 Blacksea Odyssey Jun 1, 2016 $9.9970% (88%/74%)0 .. 20,0000%00:00 (00:00)
94 Super Furball May 13, 2014 $3.99N/A (N/A)0 .. 20,0000%00:00 (00:00)
95 Anodyne Mar 22, 2013 $9.9970% (88%/75%)100,000 .. 200,0000%00:00 (00:00)
96 Battlepillars Gold Edition Apr 28, 2014 $4.9970% (88%)20,000 .. 50,0000%00:00 (00:00)
97 TRON 2.0 Aug 22, 2003 $9.9968% (87%/84%)50,000 .. 100,0000%00:00 (00:00)
98 Supreme Commander Sep 28, 2011 $14.9968% (87%/86%)500,000 .. 1,000,0000%00:00 (00:00)
99 Mr. Shifty Apr 13, 2017 $14.9968% (87%)20,000 .. 50,0000.83%04:01 (02:40)
100 Spooky Cats Jun 4, 2015 $2.9968% (87%)20,000 .. 50,0000%00:00 (00:00)
101 Civilization IV: Warlords Jul 24, 2006 $4.9968% (87%/84%)1,000,000 .. 2,000,0000%00:00 (00:00)
102 The Tiny Tale 2 Jan 30, 2015 $6.99N/A (N/A)0 .. 20,0000%00:00 (00:00)
103 Sang-Froid - Tales of Werewolves Apr 5, 2013 Free68% (87%/79%)200,000 .. 500,0000.68%08:46 (05:50)
104 Shadow Blade: Reload Aug 10, 2015 $14.9968% (87%/70%)20,000 .. 50,0001.39%04:30 (01:30)
105 VelocityUltra Dec 12, 2013 $9.9965% (86%)50,000 .. 100,0000.99%00:01 (00:00)
106 CRYPTARK Jun 20, 2017 $14.9965% (86%/80%)50,000 .. 100,0000%00:00 (00:00)
107 Age of Wonders Shadow Magic Oct 2010 $2.4965% (86%/82%)100,000 .. 200,0001.67%00:42 (00:14)
108 The Haunted: Hells Reach Oct 24, 2011 $8.9965% (86%/51%)50,000 .. 100,0000%00:00 (00:00)
109 Arcane Sorcery Sep 15, 2015 $4.99N/A (N/A)0 .. 20,0000%00:00 (00:00)
110 Super Chibi Knight Jun 24, 2015 $4.9965% (86%)20,000 .. 50,0002.7%01:00 (00:20)
111 Meltdown Jun 5, 2014 $6.9965% (86%)50,000 .. 100,0000%00:00 (00:00)
112 Time Rifters Oct 21, 2014 $9.9965% (86%)0 .. 20,0000%00:00 (00:00)
113 Neon Shadow Aug 25, 2016 $4.99N/A (N/A)0 .. 20,0000%00:00 (00:00)
114 Ghost Master Dec 21, 2006 $4.9965% (86%/81%)100,000 .. 200,0000%00:00 (00:00)
115 Executive Assault Jul 17, 2015 $12.9965% (86%)20,000 .. 50,0000%00:00 (00:00)
116 Rush for Berlin Gold Oct 29, 2009 $4.9965% (86%/76%)0 .. 20,0000%00:00 (00:00)
117 Star Ruler Sep 20, 2010 $9.9965% (86%)100,000 .. 200,0000%00:00 (00:00)
118 Western 1849 Reloaded Feb 10, 2017 $4.9965% (86%)0 .. 20,0000%00:00 (00:00)
119 N2O: Nitrous Oxide Jun 29, 2015 $4.99N/A (N/A)0 .. 20,0000%00:00 (00:00)
120 Concealed Intent Aug 2, 2016 $14.99N/A (N/A)0 .. 20,0000%00:00 (00:00)
121 ENSLAVED: Odyssey to the West Premium Edition Oct 24, 2013 $19.9962% (85%/70%)200,000 .. 500,0000.33%00:19 (00:06)
122 Dustoff Heli Rescue Mar 6, 2015 $3.9962% (85%)20,000 .. 50,0000%00:00 (00:00)
123 Steel Rain Dec 3, 2015 $2.8962% (85%)0 .. 20,0000%00:00 (00:00)
124 Magnifico Dec 2, 2014 $4.9962% (85%)0 .. 20,0000%00:00 (00:00)
125 NOBUNAGA'S AMBITION: Souzou (Traditional Chinese version) Aug 2014 $24.9962% (85%)20,000 .. 50,00020%17:33 (05:51)
126 Slash or Die Jun 3, 2016 $2.9962% (85%)50,000 .. 100,0001.27%04:18 (02:51)
127 ShootMania Storm Apr 10, 2013 $19.9962% (85%/76%)50,000 .. 100,0000%00:00 (00:00)
128 The Men of Yoshiwara: Kikuya Oct 15, 2015 $29.9959% (84%)0 .. 20,0000%00:00 (00:00)
129 Act of War: Direct Action Mar 12, 2008 $2.9959% (84%/82%)20,000 .. 50,0000%00:00 (00:00)
130 Ballistic Tanks Sep 20, 2016 $4.9959% (84%)0 .. 20,0000%00:00 (00:00)
131 Last Knight: Rogue Rider Edition Oct 3, 2014 $7.9959% (84%)20,000 .. 50,0001.59%03:01 (01:00)
132 Child Of Ault Jan 24, 2017 $9.99N/A (N/A)0 .. 20,0000%00:00 (00:00)
133 Advanced Tactics Gold Apr 12, 2011 $29.9959% (84%)0 .. 20,0000%00:00 (00:00)
134 Fat Chicken Dec 4, 2014 $9.99N/A (N/A)0 .. 20,0000%00:00 (00:00)
135 Conflict Desert Storm May 28, 2012 $6.9959% (84%/56%)20,000 .. 50,0000%00:00 (00:00)
136 Battle Group 2 Jun 13, 2014 $7.9959% (84%)50,000 .. 100,0000%00:00 (00:00)
137 Rooks Keep Dec 5, 2014 $7.9959% (84%)20,000 .. 50,0000%00:00 (00:00)
138 Yomi May 8, 2015 $14.9959% (84%)0 .. 20,00050%04:21 (02:10)
139 Foresight Nov 28, 2014 $4.99N/A (N/A)0 .. 20,0000%00:00 (00:00)
140 Eador: Genesis Aug 7, 2009 $5.9959% (84%)50,000 .. 100,0000%00:00 (00:00)
141 Gurgamoth Feb 16, 2016 $4.9959% (84%)50,000 .. 100,0000%00:00 (00:00)
142 Sudden Strike 2 Gold May 22, 2017 $5.9959% (84%)20,000 .. 50,0000%00:00 (00:00)
143 Disciples Sacred Lands Gold Oct 4, 1999 $7.9957% (83%)50,000 .. 100,0000%00:00 (00:00)
144 Legend (1994) Apr 1, 1994 $2.49N/A (N/A)0 .. 20,0000%00:00 (00:00)
145 Rack N Ruin Sep 1, 2015 $9.9957% (83%)0 .. 20,0000%00:00 (00:00)
146 Delta Force 2 Jun 18, 2009 $4.9957% (83%)20,000 .. 50,0000%00:00 (00:00)
147 NOBUNAGA'S AMBITION: Sphere of Influence Sep 1, 2015 $59.9957% (83%/70%)20,000 .. 50,0000%00:00 (00:00)
148 Orbital Gear Aug 7, 2014 $9.9957% (83%/59%)200,000 .. 500,0001.05%01:33 (01:31)
149 Ace of Protectors Jun 27, 2016 $1.99N/A (N/A)0 .. 20,0003.45%06:08 (02:02)
150 TY the Tasmanian Tiger 4 Sep 17, 2015 $5.9957% (83%)0 .. 20,0000%00:00 (00:00)
151 Galaxy Admirals Jan 17, 2017 $1.9957% (83%)50,000 .. 100,0000.62%03:01 (01:00)
152 Crush Your Enemies Jul 13, 2016 $9.9957% (83%/63%)20,000 .. 50,0000%00:00 (00:00)
153 Bulletstorm: Full Clip Edition Apr 7, 2017 $39.9957% (83%/76%)20,000 .. 50,00012%01:30 (01:29)
154 htoL#NiQ: The Firefly Diary / htoL#NiQ-ホタルノニッキ- May 18, 2016 $9.9955% (82%)0 .. 20,0000%00:00 (00:00)
155 Fleet Command Oct 26, 2006 $9.9955% (82%)20,000 .. 50,0000%00:00 (00:00)
156 Shadow Ops: Red Mercury Sep 17, 2004 $6.9955% (82%/61%)20,000 .. 50,0000%00:00 (00:00)
157 Defense Zone Jul 14, 2014 $2.99N/A (N/A)0 .. 20,0000%00:00 (00:00)
158 After The End: The Harvest Jun 2, 2017 $4.9955% (82%)20,000 .. 50,0001.69%07:32 (02:30)
159 Afghanistan '11 Mar 23, 2017 $29.9952% (81%)0 .. 20,0000%00:00 (00:00)
160 PixelJunk Shooter Ultimate Oct 21, 2015 $9.9952% (81%)0 .. 20,0000%00:00 (00:00)
161 Jim Power -The Lost Dimension Dec 10, 1993 $2.49N/A (N/A)0 .. 20,0000%00:00 (00:00)
162 rymdkapsel Jan 30, 2014 $7.9952% (81%/77%)0 .. 20,0000%00:00 (00:00)
163 Toadled Sep 22, 2016 $0.9952% (81%)20,000 .. 50,0000.71%03:04 (01:21)
164 Junk Jack Nov 30, 2016 $14.9952% (81%)0 .. 20,0000%00:00 (00:00)
165 In Verbis Virtus Apr 3, 2015 $19.9952% (81%)50,000 .. 100,0002.17%02:00 (00:40)
166 Square Brawl Oct 22, 2015 $4.9952% (81%)0 .. 20,0000%00:00 (00:00)
167 Enemy Mind Jun 6, 2014 $9.9952% (81%)200,000 .. 500,0000.29%03:01 (01:00)
168 Age of Wonders Oct 2010 $1.4952% (81%)100,000 .. 200,0001.75%00:05 (00:01)
169 Defense Zone 3 Ultra HD Dec 14, 2016 $2.9952% (81%)0 .. 20,0000%00:00 (00:00)
170 She Wants Me Dead May 13, 2016 $7.9952% (81%)0 .. 20,0000%00:00 (00:00)
171 Supreme Ruler 2020 Gold Jul 9, 2009 $9.9950% (80%/65%)50,000 .. 100,0000%00:00 (00:00)
172 Zeno Clash 2 Apr 30, 2013 $14.9950% (80%)200,000 .. 500,0000%00:00 (00:00)
173 Bloodsports.TV Mar 30, 2015 $9.9950% (80%/69%)50,000 .. 100,0000.87%03:02 (01:00)
174 Anomaly 2 May 15, 2013 $14.9950% (80%/77%)200,000 .. 500,0001.2%01:27 (01:27)
175 Monday Night Combat Jan 24, 2011 $4.9950% (80%/82%)200,000 .. 500,0000.76%00:06 (00:02)
176 Ninjahtic Jul 6, 2015 $1.9950% (80%)0 .. 20,0000%00:00 (00:00)
177 Legends of Callasia Jun 10, 2016 $14.9950% (80%)50,000 .. 100,0000%00:00 (00:00)
178 Interplanetary May 12, 2015 N/A50% (80%)100,000 .. 200,0000%00:00 (00:00)
179 Graviteam Tactics: Operation Star Mar 22, 2012 $29.9950% (80%)20,000 .. 50,0000%00:00 (00:00)
180 ROD: Revolt Of Defense Aug 12, 2016 $0.9950% (80%)20,000 .. 50,0000%00:00 (00:00)
181 Gun Metal Sep 23, 2003 $2.9950% (80%)200,000 .. 500,0001.34%03:32 (03:09)
182 Perimeter May 21, 2004 $3.9950% (80%/77%)20,000 .. 50,0000%00:00 (00:00)
183 Anomaly Warzone Earth Mobile Campaign Nov 6, 2013 $4.9950% (80%)100,000 .. 200,0000.58%04:02 (01:20)
184 Run Rabbit Run Mar 31, 2016 $3.9950% (80%)0 .. 20,0000%00:00 (00:00)
185 Fate of the World Feb 28, 2011 $9.9950% (80%/70%)50,000 .. 100,0000%00:00 (00:00)
186 Conquest of Elysium 3 Oct 24, 2012 $9.9950% (80%)20,000 .. 50,0000%00:00 (00:00)
187 Dominions 3: The Awakening Sep 10, 2013 $4.9950% (80%/82%)0 .. 20,0000%00:00 (00:00)
188 Trigger Runners Mar 3, 2016 $1.9950% (80%)0 .. 20,0000%00:00 (00:00)
189 Age of Gladiators Feb 25, 2016 $9.9950% (80%)20,000 .. 50,0001.89%05:59 (01:59)
190 Gatling Gears Aug 30, 2011 $9.9950% (80%)20,000 .. 50,0000%00:00 (00:00)
191 7,62 High Calibre Aug 24, 2007 $4.9950% (80%)50,000 .. 100,0000%00:00 (00:00)
192 Weapon of Choice Sep 23, 2015 $4.99N/A (N/A)0 .. 20,0002.22%01:01 (00:20)
193 Making History: The Calm & the Storm Mar 13, 2007 $4.9950% (80%/70%)50,000 .. 100,0000%00:00 (00:00)
194 Umihara Kawase Shun: Steam Edition Nov 24, 2015 $11.99N/A (N/A)0 .. 20,0000%00:00 (00:00)
195 Tiki Man Jun 4, 2015 $0.550% (80%)20,000 .. 50,0001.09%00:04 (00:01)
196 Vietnam ‘65 Mar 5, 2015 $9.9948% (79%/81%)0 .. 20,0000%00:00 (00:00)
197 Ironcast Mar 26, 2015 $14.9948% (79%/75%)20,000 .. 50,0000%00:00 (00:00)
198 Locoland Nov 22, 2003 $4.9948% (79%)0 .. 20,0000%00:00 (00:00)
199 Starscape Nov 3, 2008 $7.9948% (79%)0 .. 20,0000%00:00 (00:00)
200 Caster Mar 19, 2009 $1.9948% (79%)200,000 .. 500,0000.28%00:01 (00:00)
201 Klang Sep 22, 2016 $14.9948% (79%/71%)0 .. 20,0000%00:00 (00:00)
202 David. Mar 14, 2014 $1.9948% (79%)50,000 .. 100,0000.83%04:32 (01:30)
203 TRON RUN/r Feb 16, 2016 $19.9948% (79%)0 .. 20,0000%00:00 (00:00)
204 Advent Rising Sep 14, 2006 $9.9948% (79%/70%)20,000 .. 50,0000%00:00 (00:00)
205 TASTEE: Lethal Tactics May 10, 2016 $14.9948% (79%)0 .. 20,0001.75%02:31 (00:50)
206 Fortified Feb 3, 2016 $14.9948% (79%)0 .. 20,0007.14%00:05 (00:01)
207 Star Wolves 3: Civil War Mar 2, 2010 $4.9948% (79%)100,000 .. 200,0000%00:00 (00:00)
208 Protoshift Jan 15, 2016 $0.9948% (79%)0 .. 20,0000%00:00 (00:00)
209 Fantasy Wars Aug 6, 2010 $4.9948% (79%/67%)50,000 .. 100,0000%00:00 (00:00)
210 Demolition Inc. Sep 19, 2011 $5.9948% (79%)50,000 .. 100,0000%00:00 (00:00)
211 Hail to the King: Deathbat Oct 30, 2014 $5.9948% (79%)0 .. 20,0000%00:00 (00:00)
212 Cultures - 8th Wonder of the World Mar 26, 2015 $4.9948% (79%)50,000 .. 100,0001.2%00:03 (00:01)
213 Zombie Party Jun 10, 2016 $9.9948% (79%)100,000 .. 200,0000%00:00 (00:00)
214 Nuclear Dawn Sep 26, 2011 $9.9948% (79%/71%)200,000 .. 500,0000%00:00 (00:00)
215 Deadly 30 Jan 8, 2014 $4.9946% (78%)100,000 .. 200,0006.47%04:50 (04:48)
216 Strike Suit Zero: Director's Cut Apr 8, 2014 $19.9946% (78%)20,000 .. 50,0000%00:00 (00:00)
217 Star Realms Mar 8, 2016 Free46% (78%)100,000 .. 200,0000%00:00 (00:00)
218 Vector Strain Dec 9, 2015 $4.99N/A (N/A)0 .. 20,0000%00:00 (00:00)
219 Battlezone Gold Edition May 11, 2017 $34.9946% (78%)0 .. 20,0000%00:00 (00:00)
220 Curse of the Crescent Isle DX Aug 21, 2015 $4.9946% (78%)0 .. 20,0000%00:00 (00:00)
221 Dead Rising 2: Off the Record Oct 11, 2011 $19.9946% (78%/66%)200,000 .. 500,0001.01%02:05 (02:03)
222 Mold on Pizza Sep 25, 2015 $5.9946% (78%)0 .. 20,0000%00:00 (00:00)
223 Envoy Mar 17, 2016 $4.9946% (78%)50,000 .. 100,0000.46%05:31 (01:50)
224 Pharaonic Apr 28, 2016 $14.9946% (78%)20,000 .. 50,0000%00:00 (00:00)
225 The Legend of Dark Witch Dec 1, 2015 $4.9946% (78%)20,000 .. 50,0000%00:00 (00:00)
226 Battle Mages: Sign of Darkness Apr 13, 2006 $4.9946% (78%)0 .. 20,0000%00:00 (00:00)
227 Aeon Command Jul 3, 2014 $2.9946% (78%)20,000 .. 50,0000%00:00 (00:00)
228 Tank Destroyer Mar 9, 2017 $2.9946% (78%)20,000 .. 50,0001.61%00:59 (00:19)
229 Making History II: The War of the World Aug 27, 2010 $14.9946% (78%/38%)20,000 .. 50,0000%00:00 (00:00)
230 Zombie Killtime Aug 4, 2015 $1.99N/A (N/A)0 .. 20,0000%00:00 (00:00)
231 Dangerous Waters Feb 7, 2006 $14.9946% (78%/82%)50,000 .. 100,0000%00:00 (00:00)
232 PAC-MAN and the Ghostly Adventures Oct 29, 2013 $19.9946% (78%)0 .. 20,0000%00:00 (00:00)
233 Rocketbirds 2 Evolution Jan 26, 2017 $9.9944% (77%)0 .. 20,0000%00:00 (00:00)
234 Spirits of Xanadu Mar 26, 2015 $4.9944% (77%)20,000 .. 50,0001.67%02:36 (00:52)
235 Mysterium: A Psychic Clue Game Jan 12, 2017 $9.9944% (77%)50,000 .. 100,0000.62%00:38 (00:12)
236 Olympia Rising Jul 23, 2015 $4.9944% (77%)0 .. 20,0000%00:00 (00:00)
237 King of Dragon Pass Jul 28, 2015 $11.9944% (77%)0 .. 20,0000.93%11:36 (03:52)
238 Warhammer 40,000: Armageddon Nov 26, 2014 $39.9944% (77%/68%)20,000 .. 50,0000%00:00 (00:00)
239 Warlords Battlecry III May 17, 2004 $9.9944% (77%/73%)0 .. 20,0000%00:00 (00:00)
240 Sky Gamblers: Storm Raiders Jan 7, 2015 $9.9944% (77%)0 .. 20,0000%00:00 (00:00)
241 The Political Machine 2016 Feb 4, 2016 $9.9944% (77%)50,000 .. 100,0000%00:00 (00:00)
242 Riddled Corpses Jun 2, 2015 $7.9944% (77%)20,000 .. 50,0001.52%00:08 (00:02)
243 Bet On Soldier Sep 26, 2005 $7.9944% (77%)50,000 .. 100,0000%00:00 (00:00)
244 McDROID Sep 5, 2014 $9.9944% (77%)0 .. 20,0000%00:00 (00:00)
245 Painkiller Hell & Damnation Oct 31, 2012 $19.9944% (77%/64%)500,000 .. 1,000,0000.34%00:16 (00:05)
246 A.R.E.S. Extinction Agenda EX Oct 3, 2014 $9.9944% (77%)0 .. 20,0000%00:00 (00:00)
247 A Blind Legend Apr 7, 2016 $6.9944% (77%)0 .. 20,0000%00:00 (00:00)
248 Cashtronauts Sep 1, 2016 $2.9942% (76%)0 .. 20,0000%00:00 (00:00)
249 Rocket Knight May 11, 2010 $14.9942% (76%/63%)0 .. 20,0000%00:00 (00:00)
250 Deadlings: Rotten Edition Nov 11, 2014 $3.9942% (76%)50,000 .. 100,0000%00:00 (00:00)
251 Master Reboot Oct 29, 2013 $4.4942% (76%/59%)50,000 .. 100,0001.11%00:03 (00:01)
252 Heroes of Arca Feb 16, 2017 Free42% (76%)0 .. 20,0000%00:00 (00:00)
253 BloodRayne Sep 14, 2006 $9.9942% (76%/65%)50,000 .. 100,0000%00:00 (00:00)
254 Starchaser: Priestess of the Night Sky Jul 24, 2015 $3.29N/A (N/A)0 .. 20,0000%00:00 (00:00)
255 Velocity 2X Aug 19, 2015 $19.9942% (76%)0 .. 20,0000%00:00 (00:00)
256 Z Jul 4, 2014 $0.6942% (76%)100,000 .. 200,0001.8%03:51 (02:23)
257 Battle Time Sep 29, 2016 $0.9942% (76%)20,000 .. 50,0000%00:00 (00:00)
258 Monster Monpiece Mar 14, 2017 $19.9942% (76%)20,000 .. 50,0005.71%04:50 (03:13)
259 WARSHIFT Oct 12, 2016 $12.9942% (76%)20,000 .. 50,0000%00:00 (00:00)
260 Star Hammer: The Vanguard Prophecy Jun 4, 2015 $19.9942% (76%/69%)0 .. 20,0000%00:00 (00:00)
261 Chaser Jul 16, 2010 $4.9942% (76%/66%)50,000 .. 100,0001.32%01:56 (00:38)
262 Extravaganza Rising Jul 21, 2016 $5.99N/A (N/A)20,000 .. 50,0000%00:00 (00:00)
263 Heroes of Might & Magic V: Hammers of Fate Oct 10, 2008 $9.9942% (76%/66%)200,000 .. 500,0001.18%00:33 (00:11)
264 Livelock Aug 30, 2016 $9.9942% (76%/73%)20,000 .. 50,0002.13%04:57 (01:39)
265 FIVE: Champions of Canaan Sep 27, 2016 $3.9940% (75%)0 .. 20,0000%00:00 (00:00)
266 Zoo Empire Aug 1, 2004 $6.99N/A (N/A/59%)0 .. 20,0000%00:00 (00:00)
267 Pick a Hero Jun 9, 2016 $0.99N/A (N/A)0 .. 20,0000%00:00 (00:00)
268 Perimeter: Emperor's Testament Aug 29, 2006 $3.99N/A (N/A/72%)20,000 .. 50,0000%00:00 (00:00)
269 Commander: The Great War Nov 12, 2012 $29.9940% (75%)0 .. 20,0000%00:00 (00:00)
270 The Superfluous May 19, 2017 $4.99N/A (N/A)0 .. 20,0000%00:00 (00:00)
271 Smell Of Death Jul 4, 2016 $9.9940% (75%)0 .. 20,0000%00:00 (00:00)
272 Civil War II Sep 17, 2013 $39.9940% (75%)0 .. 20,0000%00:00 (00:00)
273 Onechanbara Z2: Chaos Jun 2, 2016 $39.9940% (75%)0 .. 20,0000%00:00 (00:00)
274 GEARGUNS Tank offensive Sep 22, 2016 $7.9940% (75%)20,000 .. 50,0002.6%04:08 (02:45)
275 Victory At Sea Aug 8, 2014 $24.9940% (75%)20,000 .. 50,0000%00:00 (00:00)
276 Fist Puncher Jun 21, 2013 $9.9940% (75%/73%)20,000 .. 50,0000%00:00 (00:00)
277 Corgi Warlock Dec 3, 2015 $1.9940% (75%)20,000 .. 50,0000%00:00 (00:00)
278 CivCity: Rome Apr 6, 2007 $9.9940% (75%/67%)50,000 .. 100,0000%00:00 (00:00)
279 BossConstructor Oct 24, 2016 $14.9940% (75%)0 .. 20,0000%00:00 (00:00)
280 AirMech Command Mar 8, 2017 $19.9940% (75%)0 .. 20,0000%00:00 (00:00)
281 Albino Lullaby: Episode 1 Sep 15, 2015 $9.9940% (75%)20,000 .. 50,0000%00:00 (00:00)
282 Platformines Mar 28, 2014 $9.9940% (75%/67%)100,000 .. 200,0000%00:00 (00:00)
283 Bubsy Two-Fur Jan 1, 1993 $4.9939% (74%)0 .. 20,0003.23%00:03 (00:01)
284 Making History: The Great War Jan 29, 2015 $29.9939% (74%)20,000 .. 50,0000%00:00 (00:00)
285 Banzai Escape Mar 16, 2016 $5.9939% (74%)0 .. 20,0000%00:00 (00:00)
286 TableTop Soccer Apr 22, 2016 $0.9939% (74%)0 .. 20,0000%00:00 (00:00)
287 Auro: A Monster-Bumping Adventure Apr 13, 2016 $6.9939% (74%)0 .. 20,0000%00:00 (00:00)
288 Phoning Home Feb 7, 2017 $19.9939% (74%/61%)20,000 .. 50,0000%00:00 (00:00)
289 Viktor Jun 13, 2014 $7.9939% (74%)20,000 .. 50,0000%00:00 (00:00)
290 FEIST Jul 23, 2015 $9.9939% (74%)20,000 .. 50,0000%00:00 (00:00)
291 Codex of Victory Mar 16, 2017 $14.9939% (74%)0 .. 20,0000%00:00 (00:00)
292 Hunting Unlimited 2008 Jan 29, 2008 $9.99N/A (N/A)20,000 .. 50,0000%00:00 (00:00)
293 Supreme Ruler Ultimate Oct 17, 2014 $19.9939% (74%)20,000 .. 50,0000%00:00 (00:00)
294 Vampire of the Sands Jul 17, 2015 $4.9939% (74%)0 .. 20,0000%00:00 (00:00)
295 VRZ: Torment Jun 9, 2016 $9.9939% (74%)0 .. 20,0000%00:00 (00:00)
296 Divinity: Dragon Commander Aug 6, 2013 $39.9939% (74%)200,000 .. 500,0000.66%01:10 (00:23)
297 Othello Aug 5, 2016 $9.9939% (74%)0 .. 20,0000%00:00 (00:00)
298 Sid Meier’s Ace Patrol Aug 27, 2013 $4.9939% (74%)500,000 .. 1,000,0000%00:00 (00:00)
299 Ubersoldier II Jul 22, 2008 $9.9939% (74%/62%)100,000 .. 200,0000%00:00 (00:00)
300 Distant Worlds: Universe May 23, 2014 $59.9939% (74%/81%)50,000 .. 100,00012.5%12:09 (08:05)
301 Hot Tin Roof: The Cat That Wore A Fedora Feb 20, 2015 $1.4937% (73%/66%)100,000 .. 200,0000%00:00 (00:00)
302 Retrovirus Jan 31, 2013 $9.9937% (73%/70%)20,000 .. 50,0000%00:00 (00:00)
303 The Aquatic Adventure of the Last Human Jan 19, 2016 $9.9937% (73%/76%)0 .. 20,0000%00:00 (00:00)
304 LEGO Indiana Jones 2: The Adventure Continues Feb 18, 2010 $19.9937% (73%/66%)50,000 .. 100,0000%00:00 (00:00)
305 Death by Game Show Jan 22, 2016 $9.9937% (73%)0 .. 20,0001.79%01:16 (00:25)
306 Cast of the Seven Godsends - Redux Jul 20, 2015 $9.9937% (73%)20,000 .. 50,0000%00:00 (00:00)
307 Rex Rocket Aug 5, 2014 $4.9937% (73%)20,000 .. 50,0000%00:00 (00:00)
308 Smithy Jun 3, 2016 $0.51N/A (N/A)50,000 .. 100,0000%00:00 (00:00)
309 Gold Rush! Anniversary Nov 7, 2014 $5.9935% (72%)100,000 .. 200,0002.04%03:54 (04:29)
310 Airship Dragoon Aug 26, 2014 $19.99N/A (N/A)0 .. 20,0000%00:00 (00:00)
311 The Last Federation Apr 18, 2014 $19.9935% (72%/72%)50,000 .. 100,0000%00:00 (00:00)
312 Alarameth TD Jun 23, 2015 $4.99N/A (N/A)0 .. 20,0000%00:00 (00:00)
313 There Came an Echo Feb 24, 2015 $14.9935% (72%/58%)20,000 .. 50,0002.5%00:05 (00:01)
314 Civil War: Battle of Petersburg Feb 8, 2017 $0.9935% (72%)0 .. 20,0001.03%00:04 (00:01)
315 Battle Fleet 2 Nov 20, 2014 $14.9935% (72%)20,000 .. 50,0000%00:00 (00:00)
316 Wildlife Park 2 - Crazy Zoo Mar 30, 2007 $3.99N/A (N/A)0 .. 20,0000%00:00 (00:00)
317 Cuban Missile Crisis May 6, 2005 $4.9935% (72%)20,000 .. 50,0000%00:00 (00:00)
318 Deadnaut Nov 27, 2014 $9.9935% (72%)0 .. 20,0000%00:00 (00:00)
319 Pongo May 14, 2015 $0.9935% (72%)50,000 .. 100,0001.85%01:43 (01:08)
320 Rise & Shine Jan 13, 2017 $14.9935% (72%)20,000 .. 50,0001.89%02:45 (00:55)
321 King Arthur - The Role-playing Wargame Nov 24, 2009 $9.9935% (72%)200,000 .. 500,0000%00:00 (00:00)
322 Wyv and Keep: The Temple of the Lost Idol Aug 8, 2014 $14.99N/A (N/A)20,000 .. 50,0000%00:00 (00:00)
323 rooMaze Mar 3, 2017 $1.9935% (72%)100,000 .. 200,0001.05%02:38 (01:45)
324 Cross of the Dutchman Sep 10, 2015 $8.9935% (72%/59%)20,000 .. 50,0000%00:00 (00:00)
325 Fatal Fight Jun 10, 2016 $2.9935% (72%)0 .. 20,0000%00:00 (00:00)
326 Panzer Tactics HD May 22, 2014 $9.9935% (72%/69%)20,000 .. 50,0000%00:00 (00:00)
327 Heaven Forest NIGHTS Mar 14, 2017 $0.9935% (72%)100,000 .. 200,0001.65%04:03 (04:43)
328 Warp Mar 21, 2012 $9.9935% (72%)20,000 .. 50,0000%00:00 (00:00)
329 Lost Planet: Extreme Condition Jun 26, 2007 $14.9934% (71%/66%)200,000 .. 500,0001.54%00:28 (00:09)
330 Zombie Camp Aug 1, 2016 $1.99N/A (N/A)0 .. 20,0000%00:00 (00:00)
331 Jagged Alliance 2 - Wildfire Nov 16, 2012 $6.9934% (71%)200,000 .. 500,0001.52%07:17 (07:08)
332 Space Colony: Steam Edition Apr 30, 2015 $14.9934% (71%/74%)20,000 .. 50,0000%00:00 (00:00)
333 Revolution Under Siege Gold Jul 2, 2015 $24.9934% (71%)0 .. 20,0000%00:00 (00:00)
334 Tom Clancy's EndWar Feb 25, 2009 $9.9934% (71%/68%)50,000 .. 100,0000%00:00 (00:00)
335 Lux Delux May 1, 2015 $9.9934% (71%)0 .. 20,0000%00:00 (00:00)
336 Disney Planes Aug 6, 2013 $19.99N/A (N/A)0 .. 20,0000%00:00 (00:00)
337 Elliot Quest Nov 10, 2014 $9.9934% (71%)20,000 .. 50,0000%00:00 (00:00)
338 A.R.E.S.: Extinction Agenda Jan 19, 2011 $4.9934% (71%/68%)100,000 .. 200,0000%00:00 (00:00)
339 REDCON Apr 22, 2016 $5.9934% (71%)0 .. 20,0000%00:00 (00:00)
340 Zombie City Defense 2 Aug 19, 2016 $9.9932% (70%)0 .. 20,0000%00:00 (00:00)
341 Incandescent Jun 30, 2015 $0.9932% (70%)20,000 .. 50,0000.77%13:42 (04:34)
342 BitMaster Oct 12, 2016 $2.9932% (70%)100,000 .. 200,0000.23%02:09 (00:43)
343 Elven Legacy Apr 7, 2009 $4.9932% (70%/71%)50,000 .. 100,0000%00:00 (00:00)
344 Little King's Story Aug 5, 2016 $19.9932% (70%/62%)0 .. 20,00014.29%03:03 (01:01)
345 RISK: Factions Mar 8, 2011 $9.9931% (69%/77%)50,000 .. 100,0000%00:00 (00:00)
346 Spud's Quest Jul 31, 2014 $7.99N/A (N/A)0 .. 20,0000%00:00 (00:00)
347 FIVE: Guardians of David Nov 24, 2015 $9.9931% (69%/66%)20,000 .. 50,0000%00:00 (00:00)
348 The Nightmare Cooperative Jul 16, 2014 $4.9931% (69%)50,000 .. 100,0000%00:00 (00:00)
349 Sol 0: Mars Colonization Jan 15, 2016 $3.9931% (69%)20,000 .. 50,0000%00:00 (00:00)
350 Brigade E5: New Jagged Union Oct 17, 2006 $3.9931% (69%/41%)0 .. 20,0000%00:00 (00:00)
351 YAIBA: NINJA GAIDEN Z Mar 21, 2014 $29.9931% (69%/49%)20,000 .. 50,0000%00:00 (00:00)
352 Alea Jacta Est Sep 27, 2012 $24.9931% (69%)20,000 .. 50,0000%00:00 (00:00)
353 Collapse Sep 25, 2008 $19.9931% (69%)50,000 .. 100,0000%00:00 (00:00)
354 Guns n Zombies Oct 30, 2014 $7.9931% (69%)100,000 .. 200,0000%00:00 (00:00)
355 1775: Rebellion Sep 29, 2016 $24.99N/A (N/A)0 .. 20,0004.55%00:49 (00:16)
356 Quick Slick Deadly Sep 21, 2015 $1.9931% (69%)20,000 .. 50,0000%00:00 (00:00)
357 Strategy & Tactics: Wargame Collection Apr 22, 2016 $9.9931% (69%)20,000 .. 50,0000.99%04:32 (01:30)
358 UnSummoning: the Spectral Horde Dec 21, 2015 $3.99N/A (N/A)0 .. 20,0000%00:00 (00:00)
359 Warrior Kings Apr 13, 2002 $9.9931% (69%/73%)20,000 .. 50,0000%00:00 (00:00)
360 Fair Strike Feb 5, 2004 $3.99N/A (N/A/56%)0 .. 20,0000%00:00 (00:00)
361 Warhammer 40,000: Armageddon - Da Orks Aug 18, 2016 $19.99N/A (N/A)0 .. 20,00050%00:02 (00:01)
362 Stonerid Dec 18, 2013 $4.9929% (68%)20,000 .. 50,0000%00:00 (00:00)
363 Toren May 11, 2015 $9.9929% (68%/57%)50,000 .. 100,0001.83%02:40 (01:46)
364 Pigmentone Jul 8, 2016 $1.99N/A (N/A)0 .. 20,0007.69%01:30 (00:30)
365 ManaCollect Apr 17, 2015 $6.9929% (68%)0 .. 20,0004.35%03:04 (01:01)
366 Crazy Forest Jul 6, 2016 $4.9929% (68%)50,000 .. 100,0000%00:00 (00:00)
367 Chainsaw Warrior Oct 7, 2013 $4.9928% (67%)100,000 .. 200,0000%00:00 (00:00)
368 Sengoku Sep 15, 2011 $9.9928% (67%/70%)100,000 .. 200,0000%00:00 (00:00)
369 The Hive Aug 25, 2016 $9.9928% (67%)20,000 .. 50,0000%00:00 (00:00)
370 Kill The Plumber Dec 31, 2015 $4.9928% (67%)0 .. 20,0000%00:00 (00:00)
371 Royal Defense Nov 6, 2014 $4.9928% (67%)50,000 .. 100,0000%00:00 (00:00)
372 Nomad Fleet Jul 14, 2015 $1.4928% (67%)0 .. 20,0000%00:00 (00:00)
373 Toy Odyssey: The Lost and Found Sep 20, 2016 $14.9928% (67%/66%)50,000 .. 100,0001.69%06:04 (04:02)
374 Theatre of War 2: Africa 1943 Jul 9, 2010 $4.9928% (67%/63%)50,000 .. 100,0000%00:00 (00:00)
375 8-Bit Commando Jul 27, 2011 $2.9928% (67%)50,000 .. 100,0000%00:00 (00:00)
376 Zafehouse: Diaries Sep 6, 2013 $1.9928% (67%)50,000 .. 100,0000%00:00 (00:00)
377 Survivor Squad: Gauntlets Nov 16, 2015 $4.9928% (67%)20,000 .. 50,0000%00:00 (00:00)
378 Scourge: Outbreak Apr 2, 2014 $7.9928% (67%)100,000 .. 200,0000%00:00 (00:00)
379 Bedlam Oct 13, 2015 $12.9926% (66%/54%)100,000 .. 200,0006.83%02:32 (02:43)
380 Commander Cool 2 Dec 17, 2015 $2.9926% (66%)20,000 .. 50,0001.11%02:55 (00:58)
381 1849 May 8, 2014 $14.9926% (66%)20,000 .. 50,0000%00:00 (00:00)
382 7th Legion Jan 1, 1997 $6.99N/A (N/A)20,000 .. 50,0000%00:00 (00:00)
383 The Living Dungeon Nov 2, 2015 $12.9926% (66%)0 .. 20,0000%00:00 (00:00)
384 Assassin’s Creed Chronicles: India Jan 12, 2016 $9.9926% (66%)20,000 .. 50,0004.35%22:38 (07:32)
385 Sky To Fly: Faster Than Wind Mar 25, 2016 $3.9926% (66%)0 .. 20,0000%00:00 (00:00)
386 Men of War: Condemned Heroes Apr 12, 2012 $7.9926% (66%/57%)100,000 .. 200,0000%00:00 (00:00)
387 Mad Combat Marines Jul 13, 2016 $0.4926% (66%)20,000 .. 50,0000%00:00 (00:00)
388 March of the Eagles Feb 18, 2013 $19.9925% (65%/71%)50,000 .. 100,0000%00:00 (00:00)
389 Disney Pirates of the Caribbean: At Worlds End May 22, 2007 $19.9925% (65%)0 .. 20,0000%00:00 (00:00)
390 Spirit of War Mar 12, 2015 $9.9925% (65%)0 .. 20,0000%00:00 (00:00)
391 Frozen Synapse Prime Nov 14, 2014 $24.9925% (65%/83%)100,000 .. 200,0000.63%00:25 (00:08)
392 Devil's Dare 悪魔の挑戦 Oct 21, 2014 $12.9925% (65%)20,000 .. 50,0000%00:00 (00:00)
393 Marauder Sep 10, 2009 $9.9925% (65%)50,000 .. 100,0000%00:00 (00:00)
394 Theatre of War 2: Kursk 1943 Jul 9, 2010 $4.9925% (65%)50,000 .. 100,0000%00:00 (00:00)
395 Hunters Of The Dead Sep 4, 2014 $0.9925% (65%)20,000 .. 50,0000%00:00 (00:00)
396 Zombie Tycoon 2: Brainhov's Revenge Dec 9, 2013 $4.9925% (65%)50,000 .. 100,0000%00:00 (00:00)
397 Infinity Runner Jul 14, 2014 $2.7925% (65%/56%)0 .. 20,0000%00:00 (00:00)
398 Malebolgia May 6, 2015 $12.9925% (65%)0 .. 20,0000%00:00 (00:00)
399 Ground Breakers Jun 15, 2016 $4.99N/A (N/A)0 .. 20,0000%00:00 (00:00)
400 Platypus II Mar 17, 2007 $6.9925% (65%)200,000 .. 500,0001.32%03:26 (02:40)
401 The Seven Years War (1756-1763) Oct 30, 2015 $19.9925% (65%)0 .. 20,0000%00:00 (00:00)
402 Warlock 2: The Exiled Apr 10, 2014 $19.9924% (64%/73%)50,000 .. 100,0000%00:00 (00:00)
403 Revenge of Roger Rouge Apr 22, 2016 $0.99N/A (N/A)0 .. 20,0001.2%02:44 (02:02)
404 A Game of Dwarves Oct 23, 2012 $9.9924% (64%/60%)50,000 .. 100,0000%00:00 (00:00)
405 Urban Pirate Jun 17, 2016 $6.99N/A (N/A)0 .. 20,0000%00:00 (00:00)
406 Battle Worlds: Kronos Nov 4, 2013 $19.9924% (64%/71%)20,000 .. 50,0000%00:00 (00:00)
407 Kaiju-A-GoGo Apr 23, 2015 $9.9924% (64%)20,000 .. 50,0000%00:00 (00:00)
408 Zoo Rampage Jul 9, 2014 $3.9924% (64%)0 .. 20,0000%00:00 (00:00)
409 SPACECOM Sep 17, 2014 $9.9924% (64%/68%)100,000 .. 200,0000.51%00:48 (00:16)
410 Double Dragon IV Jan 30, 2017 $6.9924% (64%/50%)0 .. 20,0000%00:00 (00:00)
411 Link Apr 22, 2016 $4.99N/A (N/A)0 .. 20,0000%00:00 (00:00)
412 Jagged Alliance: Crossfire Aug 24, 2012 $14.9924% (64%/63%)100,000 .. 200,0000%00:00 (00:00)
413 Rise: Battle Lines Nov 17, 2015 $1.9924% (64%)0 .. 20,0000%00:00 (00:00)
414 Pixel Boy and the Ever Expanding Dungeon May 30, 2014 $0.9923% (63%)20,000 .. 50,0000%00:00 (00:00)
415 Beasts Battle Jun 15, 2016 $1.9923% (63%)0 .. 20,0000%00:00 (00:00)
416 Port Royale 2 Jun 16, 2009 $4.9923% (63%/75%)50,000 .. 100,0000%00:00 (00:00)
417 Will Fight for Food: Super Actual Sellout: Game of the Hour Apr 22, 2015 $5.9923% (63%)0 .. 20,0000%00:00 (00:00)
418 Sorcerer King: Rivals Sep 22, 2016 $14.9923% (63%)20,000 .. 50,0000%00:00 (00:00)
419 War, the Game Jan 12, 2015 $6.9923% (63%/65%)20,000 .. 50,0000%00:00 (00:00)
420 Desert Ashes Nov 10, 2014 $4.9923% (63%)20,000 .. 50,0000%00:00 (00:00)
421 Supreme Ruler: Cold War Jul 29, 2011 $9.9921% (62%/63%)20,000 .. 50,0000%00:00 (00:00)
422 Disney Epic Mickey 2: The Power of Two Nov 18, 2012 $19.9921% (62%)20,000 .. 50,0000%00:00 (00:00)
423 Freight Tycoon Inc. Aug 15, 2007 $4.9921% (62%)20,000 .. 50,0000%00:00 (00:00)
424 Flashback Oct 1, 2013 $9.9921% (62%)20,000 .. 50,0000%00:00 (00:00)
425 4089: Ghost Within Jan 9, 2015 $5.9921% (62%)0 .. 20,0000%00:00 (00:00)
426 My Super Tower 2 Jan 27, 2017 $0.49N/A (N/A)0 .. 20,0000%00:00 (00:00)
427 Bombshell Jan 29, 2016 $34.9921% (62%)0 .. 20,0000%00:00 (00:00)
428 BattleLore: Command Nov 25, 2014 $6.9921% (62%)0 .. 20,0000%00:00 (00:00)
429 Battleplan: American Civil War Jul 4, 2014 $1.4921% (62%/66%)100,000 .. 200,0001.94%04:31 (05:08)
430 Spice Road Apr 24, 2014 $19.9921% (62%)0 .. 20,0000%00:00 (00:00)
431 Goblin Defenders: Steel‘n’ Wood Aug 21, 2013 $2.9921% (62%)20,000 .. 50,0002.7%02:18 (00:46)
432 Hyperspace Pinball Sep 30, 2015 $2.99N/A (N/A)0 .. 20,0000%00:00 (00:00)
433 The Few Jun 18, 2014 $7.9921% (62%)20,000 .. 50,0001.01%04:02 (01:20)
434 Purgatory Jun 22, 2016 $0.9920% (61%)200,000 .. 500,0000.27%01:06 (00:32)
435 To End All Wars Aug 29, 2014 $39.9920% (61%/71%)0 .. 20,0000%00:00 (00:00)
436 E.T. Armies Mar 3, 2016 $14.9920% (61%/54%)0 .. 20,0000%00:00 (00:00)
437 Quarantine Feb 9, 2017 $9.9920% (61%)0 .. 20,0000%00:00 (00:00)
438 Men of War: Vietnam Sep 8, 2011 $7.9920% (61%/68%)100,000 .. 200,0000%00:00 (00:00)
439 Legions of Steel Jul 16, 2015 $19.99N/A (N/A/64%)0 .. 20,0000%00:00 (00:00)
440 Stay Dead Evolution Feb 4, 2015 $5.9919% (60%)20,000 .. 50,0000%00:00 (00:00)
441 Close Combat - Panthers in the Fog Nov 19, 2012 $39.9919% (60%)0 .. 20,0000%00:00 (00:00)
442 Hybrid Wars Sep 29, 2016 $17.9919% (60%/54%)0 .. 20,0000%00:00 (00:00)
443 Overruled! Sep 15, 2015 $12.9919% (60%)0 .. 20,0000%00:00 (00:00)
444 Code of Princess Apr 14, 2016 $14.9919% (60%/53%)0 .. 20,0000%00:00 (00:00)
445 Life in Bunker Feb 25, 2016 $15.9919% (60%)0 .. 20,0000%00:00 (00:00)
446 Patrician IV - Steam Special Edition Sep 17, 2010 $14.9919% (60%/66%)100,000 .. 200,0000%00:00 (00:00)
447 Disciples III - Renaissance Steam Special Edition Jul 16, 2010 $14.9919% (60%/56%)100,000 .. 200,0000%00:00 (00:00)
448 Grim Seventh Jan 20, 2017 FreeN/A (N/A)0 .. 20,0000%00:00 (00:00)
449 Call of Duty: Black Ops - Mac Edition Sep 27, 2012 $19.9919% (60%)50,000 .. 100,0000%00:00 (00:00)
450 Merchants of Kaidan Nov 10, 2014 $14.9919% (60%)100,000 .. 200,0000%00:00 (00:00)
451 7 Grand Steps: What Ancients Begat Jun 7, 2013 $19.9919% (60%)100,000 .. 200,0000%00:00 (00:00)
452 Skyshine's BEDLAM Sep 16, 2015 $19.9919% (60%/67%)20,000 .. 50,0000%00:00 (00:00)
453 DreamBreak Jul 21, 2016 $6.9919% (60%/46%)0 .. 20,0000%00:00 (00:00)
454 Woolfe - The Red Hood Diaries Mar 17, 2015 $9.9918% (59%/55%)50,000 .. 100,0000%00:00 (00:00)
455 Super Helmets on Fire DX Ultra Edition Plus Alpha Feb 15, 2016 $0.99N/A (N/A)0 .. 20,0000%00:00 (00:00)
456 Cemetery Warrior 3 Feb 3, 2017 $0.4918% (59%)50,000 .. 100,0000.89%01:51 (01:14)
457 Antisquad Oct 31, 2014 $5.9918% (59%)50,000 .. 100,00011.43%08:49 (09:23)
458 VR Journey Dec 15, 2016 $0.518% (59%)20,000 .. 50,0000%00:00 (00:00)
459 Ninjahtic Mind Tricks Jul 16, 2015 $1.99N/A (N/A)0 .. 20,0000%00:00 (00:00)
460 Armada 2526 Gold Edition Feb 28, 2013 $19.9918% (59%/66%)20,000 .. 50,0000%00:00 (00:00)
461 Ceres Oct 16, 2015 $19.9918% (59%/74%)0 .. 20,0000%00:00 (00:00)
462 Prospekt Feb 18, 2016 $9.9918% (59%)20,000 .. 50,0000%00:00 (00:00)
463 Heavy Fire: Afghanistan Aug 15, 2014 $2.9917% (58%)20,000 .. 50,0000%00:00 (00:00)
464 Wanderlust Adventures Aug 10, 2015 $9.9917% (58%)20,000 .. 50,0000%00:00 (00:00)
465 Check vs Mate Aug 16, 2012 $19.9917% (58%/69%)0 .. 20,0000%00:00 (00:00)
466 Woodle Tree 2: Worlds Sep 16, 2016 $3.9917% (58%)20,000 .. 50,0001.89%23:41 (07:53)
467 Prophour23 Oct 22, 2014 $9.9917% (58%)0 .. 20,0000%00:00 (00:00)
468 NOBUNAGA'S AMBITION: Sphere of Influence - Ascension / 信長の野望・創造 戦国立志伝 Mar 23, 2016 $59.9917% (58%)50,000 .. 100,0000%00:00 (00:00)
469 Sir! I'd Like To Report A Bug! Oct 19, 2015 $1.99N/A (N/A)0 .. 20,0000%00:00 (00:00)
470 Adventure World Aug 2, 2016 $4.99N/A (N/A)0 .. 20,0000%00:00 (00:00)
471 Colonial Conquest Jul 28, 2015 $9.9917% (58%)0 .. 20,0000%00:00 (00:00)
472 Assault on Arnhem Mar 11, 2016 $9.99N/A (N/A)0 .. 20,0000%00:00 (00:00)
473 Defend Your Crypt Jul 21, 2016 $2.99N/A (N/A)0 .. 20,0000%00:00 (00:00)
474 Unearthed: Trail of Ibn Battuta - Episode 1 - Gold Edition Jan 3, 2014 $4.9916% (57%)20,000 .. 50,0000%00:00 (00:00)
475 Gates of Horizon Dec 18, 2014 $9.9916% (57%)0 .. 20,0000%00:00 (00:00)
476 Rise of Venice Sep 27, 2013 $19.9916% (57%/66%)50,000 .. 100,0000%00:00 (00:00)
477 Horizon Feb 6, 2014 $7.4915% (56%)50,000 .. 100,0000%00:00 (00:00)
478 Delve Deeper Sep 24, 2010 $4.9915% (56%)50,000 .. 100,0000%00:00 (00:00)
479 Abalone Apr 23, 2014 $4.9915% (56%)0 .. 20,0003.85%05:34 (01:51)
480 Defence to death May 11, 2017 $1.99N/A (N/A)50,000 .. 100,0000.27%01:00 (00:20)
481 Gnumz: Masters of Defense Dec 21, 2015 $4.9915% (56%)20,000 .. 50,0000.46%02:07 (00:42)
482 reconquest Dec 16, 2016 $11.9915% (56%)0 .. 20,0000%00:00 (00:00)
483 BC Kings Jun 16, 2009 $4.9915% (55%)20,000 .. 50,0000%00:00 (00:00)
484 Sovereignty: Crown of Kings Feb 2, 2017 $24.9915% (55%)0 .. 20,0000%00:00 (00:00)
485 Pain Train Jan 11, 2017 $0.9915% (55%)20,000 .. 50,0001.01%08:57 (02:59)
486 Wickland Nov 14, 2014 $0.9914% (54%)50,000 .. 100,0000%00:00 (00:00)
487 Tic-Toc-Tower Sep 28, 2015 $2.9914% (54%)0 .. 20,0000%00:00 (00:00)
488 RESCUE 2: Everyday Heroes Jun 3, 2015 $19.9913% (53%)20,000 .. 50,0000%00:00 (00:00)
489 Smugglers 5 Apr 11, 2014 $3.9913% (53%)20,000 .. 50,0000%00:00 (00:00)
490 Story Of the Survivor Feb 17, 2016 $4.99N/A (N/A)20,000 .. 50,0000%00:00 (00:00)
491 Nightside Apr 2, 2015 $9.9913% (53%)20,000 .. 50,0000%00:00 (00:00)
492 The Stalin Subway Oct 5, 2006 $3.9913% (53%)20,000 .. 50,0000%00:00 (00:00)
493 Aegis Oct 6, 2016 $2.99N/A (N/A)0 .. 20,0000%00:00 (00:00)
494 Armada 2526 Apr 8, 2011 $14.99N/A (N/A/66%)0 .. 20,0000%00:00 (00:00)
495 Urja Jan 9, 2015 $9.9913% (53%)20,000 .. 50,0000%00:00 (00:00)
496 Meridian: New World Apr 4, 2014 $6.9912% (52%/43%)50,000 .. 100,0000%00:00 (00:00)
497 Scapeland Mar 31, 2016 $3.9912% (52%)0 .. 20,0000%00:00 (00:00)
498 The Campaign Series: Fall Weiss May 30, 2014 $14.9912% (52%)20,000 .. 50,0000%00:00 (00:00)
499 Royal Bounty HD Aug 10, 2015 $2.9912% (52%)0 .. 20,0000%00:00 (00:00)
500 Crusaders: Thy Kingdom Come Oct 8, 2009 $9.99N/A (N/A)20,000 .. 50,0000%00:00 (00:00)
501 MinosMaze - The Minotaur's Labyrinth May 1, 2017 $4.99N/A (N/A)0 .. 20,0000%00:00 (00:00)
502 Biodrone Battle Jul 16, 2015 $1.9912% (51%)100,000 .. 200,0000.6%00:08 (00:02)
503 Guncraft Aug 9, 2013 $14.9912% (51%/73%)100,000 .. 200,0000%00:00 (00:00)
504 Dusty Revenge:Co-Op Edition Feb 17, 2014 $14.9912% (51%)50,000 .. 100,0000%00:00 (00:00)
505 PeriAreion Feb 19, 2015 $5.99N/A (N/A)0 .. 20,0000%00:00 (00:00)
506 Weather Lord: The Successor's Path Apr 8, 2015 $4.99N/A (N/A)0 .. 20,0000%00:00 (00:00)
507 Odd||Even Apr 6, 2016 $0.6911% (50%)20,000 .. 50,0000%00:00 (00:00)
508 No Pineapple Left Behind Feb 18, 2016 $9.99N/A (N/A/59%)0 .. 20,0000%00:00 (00:00)
509 MDK2 HD Jul 30, 2012 $5.0911% (50%/73%)0 .. 20,0000%00:00 (00:00)
510 Albedo: Eyes from Outer Space Apr 10, 2015 $14.9911% (50%/66%)50,000 .. 100,0000%00:00 (00:00)
511 Marvel: Ultimate Alliance 2 Jul 26, 2016 $39.9911% (50%)0 .. 20,0000%00:00 (00:00)
512 Kidnapped Aug 4, 2015 $2.9911% (49%)100,000 .. 200,0000%00:00 (00:00)
513 Castle Werewolf 3D Feb 7, 2017 $2.9910% (48%)50,000 .. 100,00013.54%04:14 (04:22)
514 Meridian: Squad 22 Aug 11, 2016 $14.9910% (48%)0 .. 20,0000%00:00 (00:00)
515 HitBox Jan 30, 2017 Free10% (48%)0 .. 20,0000%00:00 (00:00)
516 Z Steel Soldiers Aug 1, 2014 $12.9910% (48%)50,000 .. 100,0004.67%03:11 (04:45)
517 Aggression: Europe Under Fire May 10, 2007 $9.9910% (48%)50,000 .. 100,0000%00:00 (00:00)
518 Star Traders: 4X Empires Nov 18, 2014 $9.9910% (48%)0 .. 20,0000%00:00 (00:00)
519 Synonymy Dec 12, 2014 $1.9910% (48%)0 .. 20,0000%00:00 (00:00)
520 Rubber and Lead Sep 4, 2015 $4.9910% (48%)20,000 .. 50,0000%00:00 (00:00)
521 Hero Generations Apr 10, 2015 $5.999% (47%)0 .. 20,0000%00:00 (00:00)
522 Crossfire: Dungeons Jan 15, 2007 $3.999% (47%)0 .. 20,0000%00:00 (00:00)
523 Blasting Agent: Ultimate Edition Aug 17, 2016 $2.99N/A (N/A)0 .. 20,0000%00:00 (00:00)
524 Hell Nov 13, 2014 $29.99N/A (N/A)0 .. 20,0000%00:00 (00:00)
525 Disposable Heroes Oct 1, 2015 $4.999% (47%)0 .. 20,0002.38%05:09 (01:43)
526 Island Defense Jul 23, 2015 $1.999% (47%)50,000 .. 100,0000.43%04:31 (01:30)
527 Redemption: Saints And Sinners Nov 18, 2016 $0.999% (46%)50,000 .. 100,0000.46%03:15 (01:05)
528 Commander: Conquest of the Americas Jul 30, 2010 $9.999% (46%/68%)50,000 .. 100,0000%00:00 (00:00)
529 The Stalin Subway: Red Veil Oct 5, 2006 $2.999% (46%)50,000 .. 100,0002.56%00:01 (00:00)
530 Magic Quest May 6, 2016 $1.99N/A (N/A)50,000 .. 100,0000.85%05:02 (03:21)
531 Megamagic: Wizards of the Neon Age Apr 20, 2016 $9.999% (46%/67%)0 .. 20,0001.54%06:06 (02:02)
532 Chronostorm: Siberian Border Apr 2, 2009 $0.99N/A (N/A)0 .. 20,0000%00:00 (00:00)
533 Battle Chess: Game of Kings Dec 11, 2015 $10.198% (45%)0 .. 20,0000%00:00 (00:00)
534 The Bluecoats: North vs South May 10, 2012 $4.998% (45%)50,000 .. 100,0000%00:00 (00:00)
535 Carrier Command: Gaea Mission Sep 28, 2012 $32.998% (45%/60%)50,000 .. 100,0000%00:00 (00:00)
536 World War 2: Time of Wrath Jun 15, 2009 $4.998% (45%)20,000 .. 50,0000%00:00 (00:00)
537 Impire Feb 14, 2013 $19.998% (44%/45%)100,000 .. 200,0000%00:00 (00:00)
538 Nux Dec 26, 2006 $6.998% (44%)100,000 .. 200,0000.91%02:47 (03:00)
539 Pride of Nations Jun 7, 2011 $19.997% (43%/70%)20,000 .. 50,0000%00:00 (00:00)
540 DUNGEONS - Steam Special Edition Feb 10, 2011 $9.997% (43%/65%)200,000 .. 500,0000%00:00 (00:00)
541 Skyward Collapse May 23, 2013 $4.997% (43%/64%)100,000 .. 200,0000%00:00 (00:00)
542 Sword of the Stars II: Enhanced Edition Nov 30, 2012 $19.997% (42%/65%)100,000 .. 200,0000%00:00 (00:00)
543 Burstfire Sep 24, 2015 N/A7% (42%)50,000 .. 100,0001.01%00:32 (00:10)
544 Heavy Fire: Shattered Spear Oct 23, 2015 $3.99N/A (N/A)0 .. 20,0000%00:00 (00:00)
545 Samudai Feb 9, 2015 $2.997% (42%)0 .. 20,0000%00:00 (00:00)
546 The Entente Gold Aug 11, 2003 $1.997% (42%)50,000 .. 100,0000%00:00 (00:00)
547 Lost in Paradise Aug 20, 2015 $2.997% (41%)20,000 .. 50,0000%00:00 (00:00)
548 Hydraulic Empire Jul 31, 2015 $7.997% (41%)0 .. 20,0000%00:00 (00:00)
549 Wave of Darkness Nov 5, 2015 $29.997% (41%)0 .. 20,0000%00:00 (00:00)
550 Control Craft 2 Feb 15, 2016 $2.997% (41%)0 .. 20,0003.13%05:44 (01:54)
551 Infection: Humanity's Last Gasp May 26, 2016 $9.99N/A (N/A)0 .. 20,0000%00:00 (00:00)
552 Rulers of Nations Jul 16, 2014 $19.997% (41%/63%)0 .. 20,0000%00:00 (00:00)
553 Dead But Alive! Southern England Oct 2, 2015 $5.996% (40%)0 .. 20,0000%00:00 (00:00)
554 R.I.P.D.: The Game Jul 16, 2013 $9.996% (40%)20,000 .. 50,0000%00:00 (00:00)
555 Devils & Demons Oct 6, 2015 $9.996% (40%)20,000 .. 50,0000%00:00 (00:00)
556 The Kings' Crusade Oct 8, 2010 $9.996% (40%/71%)50,000 .. 100,0000%00:00 (00:00)
557 Dungeons - The Dark Lord Sep 27, 2011 $19.996% (39%/72%)100,000 .. 200,0000%00:00 (00:00)
558 Pain Train 2 Mar 16, 2017 $6.996% (39%)0 .. 20,0000%00:00 (00:00)
559 Zombie Apocalypse: Escape The Undead City Nov 25, 2013 $0.996% (39%)0 .. 20,0000%00:00 (00:00)
560 Dark Matter Oct 17, 2013 $9.996% (39%)0 .. 20,0000%00:00 (00:00)
561 Gratuitous Space Battles 2 Apr 16, 2015 $9.996% (38%)20,000 .. 50,0000%00:00 (00:00)
562 Mechs & Mercs: Black Talons Jan 9, 2015 $9.996% (38%)0 .. 20,0000%00:00 (00:00)
563 Strategic War in Europe Mar 21, 2014 $2.246% (38%)20,000 .. 50,0000%00:00 (00:00)
564 Risk Jun 10, 2013 $9.996% (38%)20,000 .. 50,0000%00:00 (00:00)
565 Stellar Impact Apr 12, 2012 $9.995% (37%/74%)50,000 .. 100,0001.37%03:32 (01:10)
566 Tiamat X May 29, 2015 $1.995% (37%)20,000 .. 50,0000%00:00 (00:00)
567 Kick-Ass 2 Aug 15, 2014 $19.995% (36%)0 .. 20,0000%00:00 (00:00)
568 Blue Sheep Mar 31, 2016 $1.99N/A (N/A)0 .. 20,0000%00:00 (00:00)
569 Fallen: A2P Protocol Aug 14, 2015 $9.995% (35%)0 .. 20,0000%00:00 (00:00)
570 Knight Adventure Oct 15, 2015 $0.99N/A (N/A)50,000 .. 100,0000.45%02:12 (00:44)
571 Urban Empire Jan 20, 2017 $29.995% (35%/62%)50,000 .. 100,0000%00:00 (00:00)
572 CTU: Counter Terrorism Unit Apr 22, 2016 $2.994% (34%)0 .. 20,0000%00:00 (00:00)
573 Into the Void Dec 4, 2015 $4.994% (34%)20,000 .. 50,0000%00:00 (00:00)
574 Shadows of War Sep 19, 2014 $2.994% (34%)20,000 .. 50,0000%00:00 (00:00)
575 Arma Tactics Oct 1, 2013 $8.994% (34%/47%)200,000 .. 500,0000%00:00 (00:00)
576 Sim Junta Aug 18, 2015 $1.994% (33%)0 .. 20,0000%00:00 (00:00)
577 Ranger of the jungle Jul 16, 2016 $3.99N/A (N/A)0 .. 20,0000%00:00 (00:00)
578 Jagged Alliance Flashback Oct 21, 2014 $19.994% (33%)20,000 .. 50,0000%00:00 (00:00)
579 Disciples III - Resurrection Oct 11, 2011 $14.994% (32%/63%)100,000 .. 200,0000%00:00 (00:00)
580 Psichodelya Aug 8, 2014 $1.994% (31%)100,000 .. 200,0001.41%03:08 (03:08)
581 Ground Pounders Jul 15, 2014 $4.99N/A (N/A)0 .. 20,0000%00:00 (00:00)
582 Evopollution Apr 23, 2014 $4.994% (31%)0 .. 20,0000%00:00 (00:00)
583 Robotex Nov 18, 2014 $4.994% (31%)100,000 .. 200,0000%00:00 (00:00)
584 Tank Operations: European Campaign Nov 22, 2013 $14.994% (31%)20,000 .. 50,0000%00:00 (00:00)
585 - Arcane RERaise - Apr 4, 2017 $2.994% (31%)200,000 .. 500,00026.75%04:01 (04:10)
586 Zombie Zoeds May 20, 2015 $4.994% (31%)200,000 .. 500,0000%00:00 (00:00)
587 Ku: Shroud of the Morrigan Mar 17, 2014 $4.994% (31%)20,000 .. 50,0000%00:00 (00:00)
588 Defenders of Time Nov 4, 2014 N/AN/A (N/A/55%)0 .. 20,0000%00:00 (00:00)
589 A Game of Thrones - Genesis Sep 28, 2011 $9.993% (30%)100,000 .. 200,0000%00:00 (00:00)
590 Power of Defense Aug 4, 2010 $9.99N/A (N/A)0 .. 20,0000%00:00 (00:00)
591 Solar Shifter EX Sep 11, 2015 $4.993% (28%)0 .. 20,0000%00:00 (00:00)
592 Hard Truck Apocalypse: Arcade / Ex Machina: Arcade May 24, 2007 $4.993% (26%)20,000 .. 50,0000%00:00 (00:00)
593 Gridberd Sep 7, 2015 $6.993% (26%)200,000 .. 500,0000.18%00:45 (00:15)
594 One Star Apr 17, 2017 $2.99N/A (N/A)50,000 .. 100,0000.49%03:23 (01:07)
595 Zombies on a Plane Mar 25, 2016 $4.992% (25%)0 .. 20,0000%00:00 (00:00)
596 APOX Jan 20, 2011 $14.992% (23%/48%)20,000 .. 50,0000%00:00 (00:00)
597 Elite vs. Freedom May 31, 2016 $4.992% (22%)0 .. 20,0000%00:00 (00:00)
598 The Asskickers-Steam Edition Feb 6, 2015 $9.992% (22%)0 .. 20,0000%00:00 (00:00)
599 Lords of the Black Sun Sep 12, 2014 $29.992% (21%)0 .. 20,0000%00:00 (00:00)
600 Human Extinction Simulator Jan 21, 2015 $19.99N/A (N/A)0 .. 20,0000%00:00 (00:00)
601 Gemini Wars Nov 2, 2012 $14.992% (18%/53%)20,000 .. 50,0000%00:00 (00:00)
602 Tryst Sep 14, 2012 $14.99N/A (N/A/50%)0 .. 20,0000%00:00 (00:00)
603 Star Project Aug 4, 2016 $1.991% (16%)100,000 .. 200,0007.5%04:17 (04:21)
604 Prison Tycoon 3: Lockdown Jan 29, 2008 $9.991% (15%)20,000 .. 50,0000%00:00 (00:00)
605 Once Bitten, Twice Dead! Jul 17, 2015 $4.991% (13%)0 .. 20,0000%00:00 (00:00)
606 Citadels Jul 25, 2013 $14.991% (12%/20%)20,000 .. 50,0000%00:00 (00:00)
607 Bloodbath Jun 16, 2014 $14.99N/A (N/A)0 .. 20,0000%00:00 (00:00)
608 Magnetic By Nature Nov 10, 2014 $9.99N/A (N/A)20,000 .. 50,0000%00:00 (00:00)

Owners of this game also own:

Access restricted.

This feature is only available to users with special access rights. Sorry.

If you want to proceed, you need to register or log in first and then back Steam Spy on Patreon. Look for Indie or Pro pledge.

Don't forget to use the same email as on Steam Spy!

Playtime distribution:

Access restricted.

This feature is only available to users with special access rights. Sorry.

If you want to proceed, you need to register or log in first and then back Steam Spy on Patreon. Look for Indie or Pro pledge.

Don't forget to use the same email as on Steam Spy!

Playtime (2 weeks):

Access restricted.

This feature is only available to users with special access rights. Sorry.

If you want to proceed, you need to register or log in first and then back Steam Spy on Patreon. Look for Indie or Pro pledge.

Don't forget to use the same email as on Steam Spy!

User reviews:

Login required.

Please register or log in to see this information.